Location: Tamazert
(32.6352°N, 5.2072°W)
Time: 05:41:50
(UTC+00:00)

Vanguard 2 - Pass Details

Date: 11 October 2022
Orbit: 553 x 2933 km, 32.9° (Epoch: 04 December)

Event Time Altitude Azimuth Distance (km) Brightness Sun altitude
Rises 08:45:19 0° 209° (SSW) 2,999 10.6 27.7°
Reaches altitude 10° 08:47:45 10° 194° (SSW) 2,274 10.2 28.1°
Maximum altitude 08:51:59 24° 140° (SE) 1,852 11.3 28.9°
Drops below altitude 10° 08:57:53 10° 90° (E) 3,281 11.8 29.9°
Sets 09:02:13 0° 79° (ENE) 4,716 12.2 30.7°
